When you browse on this site, cookies collect data to enhance your experience and personalize the content and advertising you see.
Visit our Privacy Policy to learn more. By continuing to use the site, you agree to this use of cookies and data.
  • In Hungary
  • List of Countries
  • For 7 days
  • Water Temperature
  • Satellite Maps
  • Weather Map
  • News
  • Weather Widgets
  • user-avatar
    Login

    Hourly Weather Dziadowizna

    Today, 18 November, Sunday

    Time Temperature Precipitation Wind Pressure Humidity
    00:00 -2°C° 0 mm 2 mps 752 mmHg 60%
    01:00 -2°C° 0 mm 2 mps 752 mmHg 63%
    02:00 -2°C° 0 mm 2 mps 751 mmHg 64%
    03:00 -2°C° 0 mm 2 mps 751 mmHg 65%
    04:00 -2°C° 0 mm 2 mps 750 mmHg 66%
    05:00 0°C° 0 mm 1 mps 750 mmHg 67%
    06:00 0°C° 0 mm 1 mps 749 mmHg 68%
    07:00 -1°C° 0 mm 1 mps 749 mmHg 66%
    08:00 0°C° 0 mm 1 mps 749 mmHg 62%
    09:00 +1°C° 0 mm 2 mps 749 mmHg 58%
    10:00 +2°C° 0 mm 2 mps 748 mmHg 54%
    11:00 +2°C° 0 mm 2 mps 748 mmHg 52%
    12:00 +3°C° 0 mm 2 mps 747 mmHg 51%
    13:00 +4°C° 0 mm 2 mps 746 mmHg 49%
    14:00 +3°C° 0.1 mm 2 mps 746 mmHg 52%
    15:00 +2°C° 0.1 mm 2 mps 745 mmHg 55%
    16:00 +1°C° 0.1 mm 2 mps 745 mmHg 58%
    17:00 +1°C° 0.1 mm 2 mps 745 mmHg 59%
    18:00 +1°C° 0.1 mm 2 mps 744 mmHg 61%
    19:00 +1°C° 0.1 mm 2 mps 744 mmHg 62%
    20:00 -1°C° 0 mm 2 mps 744 mmHg 65%
    21:00 -1°C° 0 mm 2 mps 743 mmHg 67%
    22:00 -1°C° 0 mm 2 mps 743 mmHg 70%
    23:00 -1°C° 0 mm 2 mps 743 mmHg 72%

    Tomorrow, 19 November, Monday

    Time Temperature Precipitation Wind Pressure Humidity
    00:00 -2°C° 0 mm 2 mps 743 mmHg 75%
    01:00 -2°C° 0 mm 2 mps 743 mmHg 78%
    02:00 -2°C° 0 mm 2 mps 742 mmHg 79%
    03:00 -2°C° 0 mm 2 mps 742 mmHg 81%
    04:00 -2°C° 0 mm 2 mps 742 mmHg 83%
    05:00 -2°C° 0 mm 2 mps 742 mmHg 84%
    06:00 -2°C° 0 mm 2 mps 742 mmHg 85%
    07:00 -4°C° 0 mm 3 mps 742 mmHg 87%
    08:00 -2°C° 0 mm 3 mps 742 mmHg 81%
    09:00 -1°C° 0 mm 3 mps 742 mmHg 75%
    10:00 -1°C° 0 mm 4 mps 742 mmHg 69%
    11:00 -1°C° 0 mm 4 mps 742 mmHg 66%
    12:00 0°C° 0 mm 4 mps 742 mmHg 63%
    13:00 +1°C° 0 mm 5 mps 742 mmHg 60%
    14:00 0°C° 0 mm 4 mps 742 mmHg 64%
    15:00 -1°C° 0 mm 4 mps 742 mmHg 68%
    16:00 0°C° 0 mm 3 mps 742 mmHg 71%
    17:00 -1°C° 0 mm 3 mps 742 mmHg 73%
    18:00 -2°C° 0 mm 4 mps 742 mmHg 75%
    19:00 -2°C° 0 mm 4 mps 743 mmHg 77%
    20:00 -2°C° 0 mm 3 mps 743 mmHg 79%
    21:00 -2°C° 0 mm 3 mps 743 mmHg 81%
    22:00 -2°C° 0 mm 3 mps 743 mmHg 82%
    23:00 -2°C° 0 mm 3 mps 743 mmHg 82%

    Day after tomorrow, 20 November, Tuesday

    Time Temperature Precipitation Wind Pressure Humidity
    00:00 -2°C° 0 mm 3 mps 743 mmHg 83%
    01:00 -3°C° 0 mm 4 mps 743 mmHg 83%
    02:00 -3°C° 0 mm 4 mps 742 mmHg 84%
    03:00 -3°C° 0 mm 4 mps 742 mmHg 85%
    04:00 -3°C° 0 mm 4 mps 742 mmHg 86%
    05:00 -3°C° 0 mm 4 mps 742 mmHg 86%
    06:00 -3°C° 0 mm 4 mps 742 mmHg 85%
    07:00 -3°C° 0 mm 4 mps 742 mmHg 85%
    08:00 -2°C° 0 mm 5 mps 741 mmHg 80%
    09:00 -1°C° 0 mm 5 mps 741 mmHg 76%
    10:00 -1°C° 0 mm 5 mps 740 mmHg 72%
    11:00 0°C° 0 mm 5 mps 740 mmHg 70%
    12:00 +1°C° 0 mm 5 mps 739 mmHg 68%
    13:00 +1°C° 0 mm 5 mps 739 mmHg 66%
    14:00 +1°C° 0.5 mm 5 mps 739 mmHg 70%
    15:00 +1°C° 0.5 mm 5 mps 738 mmHg 74%
    16:00 +1°C° 0.5 mm 5 mps 738 mmHg 78%
    17:00 0°C° 0.7 mm 4 mps 738 mmHg 81%
    18:00 0°C° 0.7 mm 4 mps 738 mmHg 84%
    19:00 0°C° 0.7 mm 4 mps 738 mmHg 87%
    20:00 0°C° 0.1 mm 4 mps 738 mmHg 88%
    21:00 +1°C° 0.1 mm 3 mps 738 mmHg 89%
    22:00 +1°C° 0.1 mm 3 mps 738 mmHg 90%
    23:00 +1°C° 0 mm 3 mps 739 mmHg 90%

    21 November, Wednesday

    Time Temperature Precipitation Wind Pressure Humidity
    00:00 +1°C° 0 mm 3 mps 739 mmHg 90%
    01:00 +2°C° 0 mm 2 mps 739 mmHg 90%
    02:00 +2°C° 0 mm 2 mps 739 mmHg 90%
    03:00 +2°C° 0 mm 2 mps 739 mmHg 91%
    04:00 +2°C° 0 mm 2 mps 739 mmHg 91%
    05:00 +2°C° 0 mm 2 mps 739 mmHg 91%
    06:00 +2°C° 0 mm 2 mps 740 mmHg 92%
    07:00 +2°C° 0 mm 2 mps 740 mmHg 92%
    08:00 +2°C° 0 mm 2 mps 740 mmHg 90%
    09:00 +2°C° 0 mm 3 mps 741 mmHg 89%
    10:00 +3°C° 0 mm 3 mps 741 mmHg 87%
    11:00 +3°C° 0 mm 3 mps 741 mmHg 86%
    12:00 +3°C° 0 mm 3 mps 741 mmHg 85%
    13:00 +4°C° 0 mm 3 mps 741 mmHg 85%
    14:00 +3°C° 0 mm 3 mps 742 mmHg 86%
    15:00 +2°C° 0 mm 3 mps 742 mmHg 88%
    16:00 +2°C° 0 mm 3 mps 742 mmHg 90%
    17:00 +2°C° 0 mm 3 mps 742 mmHg 90%
    18:00 +1°C° 0 mm 3 mps 742 mmHg 91%
    19:00 +1°C° 0 mm 3 mps 742 mmHg 91%
    20:00 +1°C° 0 mm 3 mps 743 mmHg 91%
    21:00 +1°C° 0 mm 3 mps 743 mmHg 91%
    22:00 +1°C° 0 mm 3 mps 743 mmHg 91%
    23:00 +1°C° 0 mm 3 mps 743 mmHg 91%

    22 November, Thursday

    Time Temperature Precipitation Wind Pressure Humidity
    00:00 +1°C° 0 mm 3 mps 743 mmHg 91%
    01:00 +1°C° 0 mm 3 mps 743 mmHg 90%
    02:00 +1°C° 0 mm 3 mps 743 mmHg 90%
    03:00 +1°C° 0 mm 3 mps 743 mmHg 90%
    04:00 +1°C° 0 mm 3 mps 743 mmHg 90%
    05:00 +1°C° 0 mm 3 mps 744 mmHg 90%
    06:00 +1°C° 0 mm 3 mps 744 mmHg 90%
    07:00 +1°C° 0 mm 3 mps 744 mmHg 90%
    08:00 +1°C° 0 mm 3 mps 744 mmHg 88%
    09:00 +2°C° 0 mm 3 mps 745 mmHg 86%
    10:00 +2°C° 0 mm 3 mps 745 mmHg 85%
    11:00 +3°C° 0 mm 3 mps 745 mmHg 84%
    12:00 +3°C° 0 mm 3 mps 745 mmHg 83%
    13:00 +4°C° 0 mm 3 mps 745 mmHg 82%
    14:00 +3°C° 0 mm 3 mps 745 mmHg 84%
    15:00 +3°C° 0 mm 3 mps 745 mmHg 86%
    16:00 +2°C° 0 mm 3 mps 745 mmHg 88%
    17:00 +2°C° 0 mm 3 mps 746 mmHg 89%
    18:00 +2°C° 0 mm 3 mps 746 mmHg 89%
    19:00 +3°C° 0 mm 2 mps 746 mmHg 90%
    20:00 +3°C° 0.1 mm 2 mps 746 mmHg 90%
    21:00 +3°C° 0.1 mm 2 mps 747 mmHg 91%
    22:00 +3°C° 0.1 mm 2 mps 747 mmHg 91%
    23:00 +3°C° 0.1 mm 2 mps 747 mmHg 91%

    23 November, Friday

    Time Temperature Precipitation Wind Pressure Humidity
    00:00 +3°C° 0.1 mm 2 mps 747 mmHg 91%
    01:00 +3°C° 0.1 mm 2 mps 747 mmHg 91%
    02:00 +3°C° 0.1 mm 2 mps 747 mmHg 92%
    03:00 +3°C° 0.1 mm 2 mps 747 mmHg 92%
    04:00 +3°C° 0.1 mm 2 mps 747 mmHg 92%
    05:00 +3°C° 0 mm 2 mps 747 mmHg 93%
    06:00 +3°C° 0 mm 2 mps 748 mmHg 93%
    07:00 +3°C° 0 mm 2 mps 748 mmHg 93%
    08:00 +5°C° 0 mm 1 mps 748 mmHg 91%
    09:00 +6°C° 0 mm 1 mps 748 mmHg 89%
    10:00 +6°C° 0 mm 1 mps 748 mmHg 86%
    11:00 +7°C° 0 mm 1 mps 748 mmHg 85%
    12:00 +8°C° 0 mm 1 mps 748 mmHg 83%
    13:00 +8°C° 0 mm 1 mps 748 mmHg 81%
    14:00 +8°C° 0 mm 1 mps 747 mmHg 84%
    15:00 +8°C° 0 mm 1 mps 747 mmHg 87%
    16:00 +7°C° 0 mm 1 mps 747 mmHg 89%
    17:00 +7°C° 0 mm 1 mps 747 mmHg 90%
    18:00 +7°C° 0 mm 1 mps 747 mmHg 91%
    19:00 +7°C° 0 mm 1 mps 747 mmHg 91%
    20:00 +7°C° 0 mm 1 mps 746 mmHg 92%
    21:00 +7°C° 0 mm 1 mps 746 mmHg 92%
    22:00 +7°C° 0 mm 1 mps 746 mmHg 92%
    23:00 +7°C° 0 mm 1 mps 746 mmHg 92%
    Show more